Погода в Аомори

Япония     40°49′33″N   140°44′02″E
темп.,
°C
ветер,
м/с
пор.,
м/с
влажн.,
%
обл.,
%
осадки,
мм/ч
давл.,
гПа
погр.,
м
12 апреля, пн
пн1200:00+4ю12704 0.0 103435
03:00+3ююв22585 0.0 103440
06:00+4ююв11505 0.0 103332
09:00+11з13350 0.0 1032655
12:00+13сз13315 0.0 10291094
15:00+13сз243524 0.0 1028787
18:00+9св1159100 0.0 102714
21:00+9ю2261100 0.0 102620
13 апреля, вт
вт1300:00+9юв2264100 0.0 102329
03:00+9ю1167100 0.0 102022
06:00+10ююв2265100 0.0 101732
09:00+12юв1355100 0.0 1013221
12:00+14юз3853100 0.0 10111208
15:00+13ююв51262100 0.1 1007978
18:00+12ююз41871100 0.2 10061382
21:00+12ююз81685100 3.9 10061172
14 апреля, ср
ср1400:00+8з479597 2.4 1009502
03:00+6з3591100 2.4 1010534
06:00+4зюз3680100 0.1 1012730
09:00+5з466880 0.1 1013949
12:00+6зсз685466 0.0 10131349
15:00+5зсз695098 0.0 10141335
18:00+3зсз475910 0.0 10171038
21:00+1зюз24685 0.0 1019333
15 апреля, чт
чт1500:00+1ююз23735 0.0 1019129
03:00+1ююз347124 0.0 1020129
06:00+2ююз356594 0.0 1021336
09:00+7зюз46525 0.0 10221362
12:00+9зсз46380 0.0 10211602
15:00+10зсз45350 0.0 10221220
18:00+6ссз12583 0.0 102464
21:00+5юв226141 0.0 102532
16 апреля, пт
пт1600:00+4вюв226497 0.0 102452
03:00+4ю1263100 0.0 102348
06:00+6юв115641 0.0 102239
09:00+12зсз1444100 0.0 1022525
12:00+14юз3742100 0.0 10201273
15:00+14зсз1447100 0.0 10201019
18:00+11зюз1367100 0.1 102190
21:00+10ююв238090 0.1 102355